Location: Afram
(46.8833°N, 15.5333°E)
Time: 11:50:17
(UTC+00:00)

Daily predictions for brighter satellites

Satellite Brightness Start Highest point End
(mag) Time Altitude Azimuth Time Altitude Azimuth Time Altitude Azimuth
USA 234 4.0 16:19:53 10° NE 16:25:56 41° NNW 16:31:58 10° W
ERS-2 4.0 16:25:59 10° ENE 16:27:50 13° E 16:29:40 10° ESE
Cosmos 2278 Rocket 3.3 16:24:42 10° SSE 16:29:12 25° ESE 16:33:43 10° NE
Okean-O 3.9 16:27:00 10° ESE 16:30:16 21° ENE 16:33:32 10° NNE
CORIOLIS 4.3 16:27:59 10° SSE 16:33:23 86° WSW 16:38:47 10° NNW
CZ-2C R/B 3.6 16:30:04 10° SE 16:35:13 43° ENE 16:40:37 10° N
NOSS 2-1 (E) 3.0 16:32:15 10° SSW 16:35:32 62° SE 16:38:58 10° NE
Cosmos 1346 Rocket 4.4 16:33:30 10° SE 16:35:56 16° E 16:38:24 10° NE
Cosmos 1340 3.2 16:32:31 10° SSE 16:35:58 35° E 16:39:26 10° NNE
COSMOS 2455 4.0 16:30:34 10° WSW 16:36:15 41° NW 16:41:57 10° NNE
CZ-4B R/B 3.5 16:31:11 10° SSE 16:36:47 79° WSW 16:42:29 10° NNW
SMAP 3.8 16:36:38 10° S 16:41:13 59° W 16:45:51 10° NNW
Cosmos 2058 Rocket 4.4 16:41:27 10° NNW 16:45:46 46° W 16:50:04 10° SSW
Cosmos 1455 2.7 16:43:56 10° NNW 16:47:45 65° W 16:51:34 10° S
Cosmos 405 3.5 16:44:54 10° N 16:48:13 37° ENE 16:51:29 10° SE
ARGOS 4.1 16:44:17 10° ESE 16:48:33 25° ENE 16:52:51 10° N
Cosmos 1626 Rocket 3.5 16:45:46 10° S 16:50:10 81° E 16:54:39 10° N
Cosmos 1092 Rocket 4.0 16:44:52 10° S 16:50:55 62° E 16:56:59 10° NNE
Cosmos 2263 Rocket 4.5 16:49:44 10° WNW 16:53:09 16° NW 16:56:33 10° N
Cosmos 1898 Rocket 3.5 16:48:24 10° SSW 16:53:38 77° ESE 16:58:52 10° NNE
CZ-2C R/B 4.1 16:53:35 10° NE 16:57:11 17° E 17:00:46 10° SE
TELKOM 3 3.4 16:55:22 10° WNW 16:57:26 39° N 16:58:27 23° ENE
Cosmos 1680 Rocket 4.1 16:53:19 10° NNW 16:58:30 63° WSW 17:03:37 10° S
Nadezhda 4 Rocket 4.3 16:53:32 10° SSW 16:59:44 73° W 17:05:55 10° N
Cosmos 1328 3.7 16:58:28 10° S 17:02:25 68° E 17:06:23 10° NNE
CZ-4B R/B 1.2 17:01:11 10° NNE 17:04:29 74° ESE 17:07:41 10° S
CZ-2D R/B 3.1 17:01:21 10° SSE 17:05:11 75° ENE 17:09:01 10° N
MOS 1 Rocket 3.1 17:01:59 10° NNE 17:06:13 56° E 17:10:29 10° S
Meteor 1-11 4.4 17:03:12 10° S 17:08:40 52° E 17:14:07 10° NNE
Meteor 2-8 Rocket 4.4 17:02:41 10° N 17:08:50 78° E 17:14:58 10° SSE
Cosmos-2242 3.2 17:05:41 10° N 17:09:52 49° ENE 17:14:03 10° SSE
NOSS 3-1 (C) 4.5 17:05:33 10° NW 17:13:02 69° SW 17:21:41 10° SSE
COSMO-SKYMED 1 2.5 17:09:13 10° NNE 17:13:36 83° ESE 17:17:56 10° SSW
Cosmos 1937 Rocket 3.5 17:10:59 10° SSW 17:16:18 87° ESE 17:21:40 10° NNE
BREEZE-M DEB (TANK) 1.8 17:14:17 10° WNW 17:16:26 58° NNE 17:17:14 34° ENE
Cosmos 1758 Rocket 3.6 17:12:28 10° S 17:16:52 63° E 17:21:20 10° NNE
Cosmos 2098 Rocket 4.3 17:10:14 10° S 17:17:34 68° E 17:24:40 10° NNE
CSL-04 Debris 4.4 17:16:56 10° SE 17:21:59 44° ENE 17:27:05 10° N
USA 290 2.0 17:18:56 10° NNW 17:22:07 83° ENE 17:25:18 10° SSE
SL-08 RB Rocket 4.5 17:21:13 20° ESE 17:23:23 29° ENE 17:27:14 10° N
NOSS 2-1 (C) 4.2 17:21:40 10° WSW 17:24:47 36° NW 17:27:19 15° NNE
Cosmos 1833 Rocket 2.6 17:20:31 10° NNW 17:26:11 89° ENE 17:31:48 10° SSE
H-2A R/B 2.0 17:22:32 10° SSE 17:27:32 66° ENE 17:32:43 10° N
Cosmos 1939 Rocket 4.5 17:26:13 10° SSW 17:30:01 38° W 17:33:48 10° NNW
Helios 1A Rocket 3.0 17:26:07 10° SSE 17:30:09 53° ENE 17:34:12 10° N
H-2A R/B 4.0 17:26:45 10° N 17:30:33 29° WNW 17:34:15 10° SW
NOSS 2-1 (D) 4.4 17:27:43 10° WSW 17:30:45 32° NW 17:33:06 16° NNE
Cosmos 2344 4.4 17:23:43 10° NW 17:33:05 90° S 17:46:16 10° SE
Cosmos 389 Rocket 4.4 17:31:01 10° N 17:32:01 16° NNE 17:32:01 16° NNE
USA 229 DEB 4.3 17:27:13 10° NW 17:34:28 67° WSW 17:42:06 10° SSE
USA 229 4.3 17:27:19 10° NW 17:34:35 68° WSW 17:42:13 10° SSE
Cosmos 2026 Rocket 4.1 17:28:45 10° S 17:34:54 82° W 17:41:13 10° N
CZ-3B R/B 2.5 17:32:51 10° WNW 17:35:43 74° SSW 17:45:01 10° SE
SJ 16-02 3.9 17:34:39 10° W 17:37:40 18° NW 17:40:42 10° N
YAOGAN 1 2.5 17:34:51 10° SSE 17:39:11 87° ENE 17:43:32 10° NNW
Cosmos 1417 Rocket 4.4 17:33:10 10° N 17:39:24 66° E 17:45:39 10° SSE
Meteor 2-15 Rocket 4.3 17:33:20 10° N 17:39:32 76° E 17:45:40 10° SSE
SJ-11-01 4.1 17:36:18 10° SSE 17:40:58 78° ENE 17:45:40 10° N
Cosmos 1689 Rocket 1.8 17:41:34 77° SE 17:41:34 77° SE 17:44:18 10° S
Cosmos 1553 Rocket 3.9 17:36:10 10° N 17:42:36 80° E 17:48:54 10° SSE
Aureole 3 Rocket 3.6 17:40:05 10° NNW 17:43:15 47° W 17:47:10 10° S
COSMOS 2406 3.8 17:39:47 10° NNW 17:45:28 59° WSW 17:51:06 10° S
Cosmos 2082 Rocket 2.1 17:40:17 10° NNW 17:46:02 72° ENE 17:51:40 10° SSE
HJ-1C 3.3 17:47:04 64° NE 17:47:04 64° NE 17:50:13 10° N
Cosmos 1825 Rocket 3.6 17:44:21 10° S 17:48:44 83° W 17:53:12 10° N
Meteor 1-27 4.1 17:43:50 10° N 17:49:28 87° E 17:55:02 10° S
X-37B 1.9 17:48:12 10° W 17:51:07 33° SSW 17:51:36 31° S
deb Kosmos-1763 3.8 17:48:58 10° NNW 17:52:34 79° ENE 17:52:52 71° ESE
ISS -2.8 17:50:56 10° WNW 17:53:50 37° N 17:53:50 37° N
ATLAS 2AS CENTAUR R/B 4.3 17:52:01 10° NW 17:57:51 22° N 18:00:55 18° NE
CZ-4 R/B 2.4 17:55:04 10° S 17:58:57 47° W 18:02:48 10° NNW
ATLAS 5 CENTAUR R/B 4.1 17:57:52 10° NNW 17:59:48 12° N 18:00:57 11° NNE
Iridium 4 Rocket 4.5 17:55:23 10° NNW 18:00:33 47° W 18:05:14 10° SSW
Cosmos 2315 Rocket 4.3 17:55:04 10° N 18:00:58 42° ENE 18:01:36 41° E
ERS-2 3.0 17:58:38 14° N 18:01:37 48° WNW 18:05:07 10° SW
CSL-04 Rocket 3.6 17:57:42 10° SSE 18:03:09 87° ENE 18:08:43 10° NNW
Okean-O 3.6 18:02:08 10° S 18:06:25 48° W 18:10:44 10° NNW
USA 234 4.0 18:05:52 30° NE 18:08:05 38° N 18:14:00 10° WNW
Ariane Rocket 4.4 18:11:25 24° NNE 18:11:25 24° NNE 18:13:44 10° N
S3M 3.8 18:02:55 10° N 18:09:05 87° E 18:15:14 10° S
CZ-4C R/B 4.1 18:05:37 10° NNW 18:10:25 21° NNE 18:11:46 20° NNE
Cosmos 1346 Rocket 3.9 18:08:11 10° SSW 18:11:56 43° WNW 18:15:11 13° N
Cosmos 1655 Rocket 3.8 18:05:49 10° S 18:12:01 78° E 18:18:15 10° N
Cosmos 2278 Rocket 2.7 18:07:18 10° SW 18:12:53 57° WNW 18:17:11 17° NNE
Cosmos 1953 Rocket 3.8 18:10:56 10° SSW 18:15:15 66° W 18:17:57 22° N
Cosmos 2292 Rocket 3.7 18:15:14 10° SSW 18:20:04 69° W 18:20:41 57° NNW
Cosmos 44 Rocket 3.2 18:18:14 10° SSW 18:23:10 87° SE 18:23:19 84° ENE
ARGOS 3.8 18:23:14 10° S 18:28:28 55° W 18:33:46 10° NNW
Meteor 2-2 Rocket 4.3 18:24:40 10° N 18:30:41 89° E 18:34:20 25° S
Cosmos 1869 4.3 18:27:12 10° NNW 18:30:11 42° NW 18:30:11 42° NW
NOSS 2-2 (D) 4.3 18:27:39 10° NW 18:33:02 73° NE 18:33:29 70° E
CZ-2C R/B 2.8 18:33:45 18° N 18:38:04 78° WNW 18:43:41 10° SSW
Cosmos 494 Rocket 4.1 18:37:33 10° NNW 18:42:29 71° W 18:42:29 71° W
Cosmos 2150 Rocket 4.4 18:40:26 10° SW 18:45:32 61° WNW 18:45:58 59° NW
Cosmos 2297 4.4 18:47:39 10° SSW 18:51:23 43° SSW 18:51:23 43° SSW
Cosmos 909 Rocket 4.5 18:54:51 10° NNW 19:00:09 56° N 19:00:09 56° N
USA 234 4.4 19:53:12 36° NW 19:53:12 36° NW 19:56:55 10° NW
ATLAS 2AS CENTAUR R/B 4.3 19:44:15 10° NW 19:48:21 28° N 19:48:21 28° N
CZ-4C R/B 4.4 19:54:09 10° NNW 19:56:58 25° NNW 19:56:58 25° NNW
